Regional Weather Roundup
Issued by NWS Albany, NY

Home | Current Version | Previous Version | Text Only | Print | Product List | Glossary On
Versions: 1 2 3 4 5 6 7 8 9 10 11 12 13 14 15 16 17 18 19 20 21 22 23 24 25 26 27 28 29 30 31 32 33 34 35 36 37 38 39 40 41 42 43 44 45 46 47 48 49 50
000
ASUS41 KALY 240710
RWRALY

NEW YORK STATE HOURLY WEATHER ROUNDUP
NATIONAL WEATHER SERVICE ALBANY NY
300 AM EDT SUN JUL 24 2016

NOTE: "FAIR" INDICATES FEW OR NO CLOUDS BELOW 12,000 FEET WITH NO
SIGNIFICANT WEATHER AND/OR NO OBSTRUCTIONS TO VISIBILITY.

NYZ032-033-038>043-046>054-057>066-NYZ062>081-082-084-240800-
EAST


CITY           SKY/WX    TMP DP  RH WIND       PRES   REMARKS
ALBANY         CLEAR     62  60  93 CALM      29.97R
GLENS FALLS    FOG       63  61  93 W3        29.97R VSB 1/2
POUGHKEEPSIE   PTCLDY    66  60  81 CALM      29.94F
MONTGOMERY     CLEAR     63  60  90 CALM      29.97R
WHITE PLAINS   CLEAR     69  59  70 CALM      29.94R
ISLIP          PTCLDY    74  59  59 CALM      29.93R
NEW YORK CITY  PTCLDY    80  62  54 NE8       29.92S
CENTRAL PARK   PTCLDY    78  61  55 NE3       29.96R
$$

NYZ005>009-017-018-044>046-055-056-240800-
CENTRAL


CITY           SKY/WX    TMP DP  RH WIND       PRES   REMARKS
FULTON         CLEAR     65  61  87 CALM      29.99R
SYRACUSE       CLEAR     67  62  84 E3        29.97F
ROME           CLEAR     61  61 100 CALM      30.00R
ELMIRA         PTCLDY    62  55  77 CALM      30.01R
BINGHAMTON     CLEAR     67  56  67 N6        30.03R
MONTICELLO     CLEAR     63  57  82 N5        30.03R
$$

NYZ026>034-041>043-087-240800-
NORTH


CITY           SKY/WX    TMP DP  RH WIND       PRES   REMARKS
WATERTOWN      CLEAR     58  57  97 E3        29.99R
FORT DRUM      NOT AVBL
MASSENA        PTCLDY    64  55  72 N5        29.99R
SARANAC LAKE   MOCLDY    51  49  92 CALM      30.01S
PLATTSBURGH    CLOUDY    67  60  78 N13       29.98R
$$

NYZ001>004-010>016-019>021-085-240800-
WEST


CITY           SKY/WX    TMP DP  RH WIND       PRES   REMARKS
NIAGARA FALLS  CLEAR     70  60  70 CALM      29.99S
BUFFALO        PTCLDY    69  62  78 E3        30.00S
DUNKIRK        PTCLDY    64  62  93 CALM      30.00S
JAMESTOWN      CLOUDY    64  57  77 CALM      30.05S
WELLSVILLE     CLEAR     65  57  75 CALM      30.08S
ROCHESTER      CLOUDY    68  60  75 CALM      30.00S
PENN YAN       CLEAR     64  56  75 CALM      30.02S
$$

             KEY
       WCI = WIND CHILL INDEX
       VSB = VISIBILITY
       HX  = HEAT INDEX
$$



USA.gov is the U.S. government's official web portal to all federal, state and local government web resources and services.